Home   Weather   Oviedo   Past weeks

Flag for Spain Past Weather in Oviedo, Spain — Yesterday and Last 2 Weeks

Now
44 °F

Passing clouds.


Feels Like: 44 °F
Forecast: 31 / 49 °F
Wind: 2 mph from Northeast

Location: Oviedo

Current Time: Jan 20, 2017 at 5:32:22 pm

Latest Report: Jan 20, 2017 at 4:00 pm


Visibility: 13 mi

Pressure: 30.18 "Hg

Humidity: 62%

Dew Point: 32 °F

Location of OviedoLocation

Past Weather in Oviedo — Graph

°F

Oviedo Temperature Yesterday

Maximum temperature yesterday: 41 °F (at 3:00 pm)
Minimum temperature yesterday: 33 °F (at 11:00 pm)
Average temperature yesterday: 37 °F

High & Low Weather Summary for the Past Weeks

 TemperatureHumidityPressure
High58 °F (Jan 12, 5:00 pm)100% (Jan 6, 5:00 am)30.57 "Hg (Jan 6, 5:00 am)
Low28 °F (Jan 20, 8:00 am)33% (Jan 8, 3:00 pm)30.10 "Hg (Jan 12, 4:00 pm)
Average42 °F86%30.41 "Hg
* Reported Jan 5 6:00 pm — Jan 20 4:00 pm, Oviedo, Weather by CustomWeather, © 2017

Note: Actual official high and low records may vary slightly from our data, if they occured in-between our weather recording intervals... More about our weather records

Advertising

Oviedo Weather History for the Previous 24 Hours

Scroll right to see more
 ConditionsComfort  
Time TempWeatherWind HumidityBarometerVisibility
4:00 pm
Fri, Jan 20
44 °FPassing clouds.2 mph62%30.18 "Hg12 mi
3:00 pm43 °FQuite cool.3 mph64%30.19 "Hg12 mi
2:00 pm41 °FQuite cool.3 mph69%30.20 "Hg12 mi
1:00 pm40 °FPassing clouds.2 mph72%30.24 "Hg11 mi
12:00 pm37 °FChilly.1 mph80%30.27 "Hg10 mi
11:00 am33 °FChilly.3 mph87%30.28 "Hg11 mi
10:00 am29 °FPassing clouds.3 mph97%30.28 "Hg6 mi
9:00 am28 °FChilly.3 mph96%30.27 "Hg6 mi
8:00 am28 °FChilly.6 mph97%30.27 "Hg6 mi
7:00 am29 °FClear.5 mph98%30.27 "Hg7 mi
6:00 am29 °FChilly.5 mph96%30.27 "Hg5 mi
5:00 am29 °FChilly.3 mph96%30.28 "Hg8 mi
4:00 am30 °FClear.3 mph94%30.27 "Hg6 mi
3:00 am30 °FChilly.6 mph93%30.27 "Hg7 mi
2:00 am30 °FChilly.5 mph94%30.26 "Hg6 mi
1:00 am32 °FPassing clouds.3 mph91%30.27 "Hg7 mi
12:00 am32 °FChilly.3 mph91%30.27 "Hg7 mi
11:00 pm
Thu, Jan 19
33 °FChilly.2 mph89%30.27 "Hg9 mi
10:00 pm34 °FPassing clouds.3 mph86%30.27 "Hg10 mi
9:00 pm36 °FChilly.3 mph82%30.26 "Hg11 mi
8:00 pm37 °FChilly.3 mph80%30.25 "Hg12 mi
7:00 pm39 °FPassing clouds.5 mph73%30.23 "Hg12 mi
6:00 pm40 °FChilly.5 mph71%30.23 "Hg12 mi
5:00 pm41 °FQuite cool.5 mph67%30.23 "Hg12 mi
Weather by CustomWeather, © 2017

See weather overviewHow to use our weather pages